Location: ??
(34.7252°N, 135.5457°E)
Time: 09:47:14
(UTC+00:00)

Cosmos 1980 Rocket - Pass Details

Date: 24 September 2020
Orbit: 831 x 848 km, 71.0° (Epoch: 23 October)

Event Time Altitude Azimuth Distance (km) Brightness Sun altitude
Exits shadow 18:18:39 14° 342° (NNW) 2,200 4.4 -30.8°
Drops below altitude 10° 18:19:42 10° 351° (N) 2,465 4.7 -30.6°
Sets 18:22:46 0° 7° (N) 3,400 5.7 -30.0°
